This is the latest recevied weather packets stored in our database for station/object WX1NWA. If no packets are shown the sender has not sent any weather packets the latest 10 day(s).
| Time | Temp. | Humidity | Pressure | Rain* | Wind** | Luminosity | Snow |
|---|---|---|---|---|---|---|---|
| 1777756201 | 17.78° C | 40% | 1021.3 hPa | 0 mm | - | 502 W/m² | - |
| 1777755897 | 18.33° C | 39% | 1021.2 hPa | 0 mm | - | 523 W/m² | - |
| 1777755594 | 17.78° C | 41% | 1021.2 hPa | 0 mm | - | 541 W/m² | - |
| 1777755290 | 18.33° C | 38% | 1021.5 hPa | 0 mm | - | 561 W/m² | - |
| 1777754988 | 18.33° C | 37% | 1021.3 hPa | 0 mm | - | 565 W/m² | - |
| 1777754685 | 18.33° C | 38% | 1021.5 hPa | 0 mm | - | 576 W/m² | - |
| 1777754383 | 18.33° C | 38% | 1021.4 hPa | 0 mm | - | 586 W/m² | - |
| 1777754080 | 17.78° C | 37% | 1021.4 hPa | 0 mm | - | 596 W/m² | - |
| 1777753776 | 17.78° C | 37% | 1021.6 hPa | 0 mm | - | 606 W/m² | - |
| 1777753473 | 18.33° C | 38% | 1021.3 hPa | 0 mm | - | 613 W/m² | - |
| 1777753171 | 17.78° C | 37% | 1021.6 hPa | 0 mm | - | 586 W/m² | - |
| 1777752866 | 17.22° C | 40% | 1021.8 hPa | 0 mm | - | 600 W/m² | - |
| 1777752563 | 17.22° C | 39% | 1021.6 hPa | 0 mm | - | 627 W/m² | - |
| 1777752259 | 17.78° C | 37% | 1021.6 hPa | 0 mm | - | 110 W/m² | - |
| 1777751957 | 18.89° C | 38% | 1021.4 hPa | 0 mm | - | 635 W/m² | - |
| 1777751654 | 18.33° C | 40% | 1021.7 hPa | 0 mm | - | 659 W/m² | - |
| 1777751350 | 18.89° C | 38% | 1021.7 hPa | 0 mm | - | 679 W/m² | - |
| 1777751047 | 18.33° C | 41% | 1021.7 hPa | 0 mm | - | 699 W/m² | - |
| 1777750743 | 17.78° C | 39% | 1021.7 hPa | 0 mm | - | 709 W/m² | - |
| 1777750440 | 17.78° C | 40% | 1021.8 hPa | 0 mm | - | 699 W/m² | - |
| 1777750135 | 18.89° C | 38% | 1021.7 hPa | 0 mm | - | 683 W/m² | - |
| 1777749833 | 18.33° C | 40% | 1021.6 hPa | 0 mm | - | 749 W/m² | - |
| 1777749530 | 18.33° C | 42% | 1021.6 hPa | 0 mm | - | 769 W/m² | - |
| 1777749228 | 17.22° C | 43% | 1021.9 hPa | 0 mm | - | 748 W/m² | - |
| 1777748925 | 16.67° C | 42% | 1021.8 hPa | 0 mm | - | 752 W/m² | - |
* Rain latest hour (hover to see other rain measurements)
** Current wind speed in m/s (hover to see current wind gust speed)